When you browse on this site, cookies collect data to enhance your experience and personalize the content and advertising you see.
Visit our Privacy Policy to learn more. By continuing to use the site, you agree to this use of cookies and data.
  • en France
  • Liste des pays
  • À 7 jours
  • Température de l'eau
  • Carte satellitaire
  • Carte météo
  • Widgets météo
  • user-avatar
    Se connecter

    Météo par heure à Punta Gorda

    Ce jour, 16 Février, Samedi

    Heure Température Précipitation Vent Pression Humidité
    00:00 +24°C° 0 mm 2 m/s 759 mmHg 91%
    01:00 +24°C° 0 mm 2 m/s 759 mmHg 92%
    02:00 +24°C° 0 mm 2 m/s 759 mmHg 92%
    03:00 +24°C° 0 mm 1 m/s 758 mmHg 93%
    04:00 +23°C° 0 mm 1 m/s 758 mmHg 94%
    05:00 +23°C° 0 mm 1 m/s 758 mmHg 94%
    06:00 +23°C° 0 mm 1 m/s 758 mmHg 95%
    07:00 +25°C° 0 mm 1 m/s 758 mmHg 86%
    08:00 +27°C° 0 mm 1 m/s 758 mmHg 77%
    09:00 +29°C° 0 mm 1 m/s 759 mmHg 68%
    10:00 +31°C° 0 mm 1 m/s 758 mmHg 62%
    11:00 +32°C° 0 mm 2 m/s 758 mmHg 56%
    12:00 +35°C° 0 mm 2 m/s 757 mmHg 50%
    13:00 +35°C° 0 mm 3 m/s 756 mmHg 49%
    14:00 +35°C° 0 mm 3 m/s 755 mmHg 49%
    15:00 +35°C° 0 mm 4 m/s 754 mmHg 49%
    16:00 +33°C° 0 mm 4 m/s 755 mmHg 57%
    17:00 +30°C° 0 mm 4 m/s 755 mmHg 66%
    18:00 +28°C° 0 mm 3 m/s 755 mmHg 74%
    19:00 +27°C° 0 mm 3 m/s 756 mmHg 80%
    20:00 +26°C° 0 mm 3 m/s 756 mmHg 87%
    21:00 +25°C° 0 mm 2 m/s 757 mmHg 94%
    22:00 +25°C° 0 mm 2 m/s 757 mmHg 94%
    23:00 +24°C° 0 mm 2 m/s 757 mmHg 95%

    Demain, 17 Février, Dimanche

    Heure Température Précipitation Vent Pression Humidité
    00:00 +24°C° 0 mm 1 m/s 757 mmHg 96%
    01:00 +24°C° 0 mm 1 m/s 757 mmHg 95%
    02:00 +24°C° 0 mm 1 m/s 757 mmHg 95%
    03:00 +24°C° 0 mm 1 m/s 756 mmHg 95%
    04:00 +24°C° 0 mm 1 m/s 756 mmHg 94%
    05:00 +24°C° 0 mm 1 m/s 757 mmHg 94%
    06:00 +24°C° 0 mm 1 m/s 757 mmHg 94%
    07:00 +26°C° 0 mm 1 m/s 757 mmHg 86%
    08:00 +28°C° 0 mm 1 m/s 758 mmHg 78%
    09:00 +30°C° 0 mm 1 m/s 758 mmHg 70%
    10:00 +32°C° 0 mm 1 m/s 758 mmHg 63%
    11:00 +34°C° 0 mm 1 m/s 757 mmHg 56%
    12:00 +37°C° 0 mm 2 m/s 757 mmHg 48%
    13:00 +37°C° 0 mm 2 m/s 756 mmHg 48%
    14:00 +37°C° 0 mm 3 m/s 755 mmHg 47%
    15:00 +37°C° 0 mm 3 m/s 754 mmHg 47%
    16:00 +35°C° 0 mm 4 m/s 754 mmHg 54%
    17:00 +33°C° 0 mm 4 m/s 755 mmHg 62%
    18:00 +30°C° 0 mm 4 m/s 755 mmHg 69%
    19:00 +29°C° 0 mm 4 m/s 756 mmHg 75%
    20:00 +28°C° 0 mm 3 m/s 757 mmHg 81%
    21:00 +27°C° 0 mm 3 m/s 758 mmHg 88%
    22:00 +26°C° 0 mm 2 m/s 758 mmHg 91%
    23:00 +26°C° 0 mm 2 m/s 758 mmHg 93%

    Après-demain, 18 Février, Lundi

    Heure Température Précipitation Vent Pression Humidité
    00:00 +25°C° 0 mm 1 m/s 758 mmHg 96%
    01:00 +25°C° 0 mm 1 m/s 757 mmHg 96%
    02:00 +25°C° 0 mm 1 m/s 757 mmHg 95%
    03:00 +25°C° 0 mm 1 m/s 757 mmHg 94%
    04:00 +25°C° 0 mm 1 m/s 757 mmHg 94%
    05:00 +25°C° 0 mm 1 m/s 757 mmHg 95%
    06:00 +25°C° 0 mm 1 m/s 758 mmHg 95%
    07:00 +27°C° 0 mm 1 m/s 758 mmHg 84%
    08:00 +28°C° 0 mm 0 m/s 759 mmHg 73%
    09:00 +30°C° 0 mm 0 m/s 759 mmHg 62%
    10:00 +34°C° 0 mm 1 m/s 759 mmHg 54%
    11:00 +36°C° 0 mm 1 m/s 759 mmHg 47%
    12:00 +39°C° 0 mm 2 m/s 758 mmHg 40%
    13:00 +38°C° 0 mm 2 m/s 757 mmHg 39%
    14:00 +38°C° 0 mm 3 m/s 756 mmHg 39%
    15:00 +38°C° 0 mm 4 m/s 756 mmHg 39%
    16:00 +36°C° 0 mm 4 m/s 756 mmHg 48%
    17:00 +34°C° 0 mm 4 m/s 756 mmHg 57%
    18:00 +30°C° 0 mm 4 m/s 756 mmHg 67%
    19:00 +29°C° 0 mm 4 m/s 757 mmHg 73%
    20:00 +28°C° 0 mm 3 m/s 758 mmHg 79%
    21:00 +27°C° 0 mm 3 m/s 759 mmHg 85%
    22:00 +27°C° 0 mm 3 m/s 759 mmHg 87%
    23:00 +27°C° 0 mm 2 m/s 759 mmHg 89%

    19 Février, Mardi

    Heure Température Précipitation Vent Pression Humidité
    00:00 +27°C° 0 mm 2 m/s 759 mmHg 90%
    01:00 +27°C° 0.1 mm 2 m/s 758 mmHg 92%
    02:00 +26°C° 0.1 mm 1 m/s 758 mmHg 93%
    03:00 +26°C° 0.1 mm 1 m/s 758 mmHg 94%
    04:00 +26°C° 0 mm 1 m/s 758 mmHg 94%
    05:00 +26°C° 0 mm 1 m/s 758 mmHg 95%
    06:00 +26°C° 0 mm 1 m/s 759 mmHg 96%
    07:00 +28°C° 0 mm 1 m/s 759 mmHg 87%
    08:00 +27°C° 0 mm 0 m/s 759 mmHg 78%
    09:00 +29°C° 0 mm 0 m/s 760 mmHg 69%
    10:00 +33°C° 0 mm 1 m/s 759 mmHg 62%
    11:00 +35°C° 0 mm 2 m/s 759 mmHg 56%
    12:00 +36°C° 0 mm 3 m/s 758 mmHg 50%
    13:00 +36°C° 0 mm 3 m/s 757 mmHg 47%
    14:00 +36°C° 0 mm 4 m/s 756 mmHg 45%
    15:00 +36°C° 0 mm 4 m/s 755 mmHg 43%
    16:00 +34°C° 0 mm 4 m/s 756 mmHg 50%
    17:00 +32°C° 0 mm 4 m/s 756 mmHg 57%
    18:00 +29°C° 0 mm 5 m/s 756 mmHg 64%
    19:00 +29°C° 0 mm 4 m/s 757 mmHg 71%
    20:00 +28°C° 0 mm 4 m/s 757 mmHg 78%
    21:00 +27°C° 0 mm 4 m/s 758 mmHg 85%
    22:00 +27°C° 0 mm 3 m/s 758 mmHg 86%
    23:00 +27°C° 0 mm 2 m/s 758 mmHg 87%

    20 Février, Mercredi

    Heure Température Précipitation Vent Pression Humidité
    00:00 +27°C° 0 mm 2 m/s 758 mmHg 88%
    01:00 +27°C° 0 mm 1 m/s 757 mmHg 90%
    02:00 +26°C° 0 mm 1 m/s 757 mmHg 92%
    03:00 +26°C° 0 mm 1 m/s 757 mmHg 95%
    04:00 +25°C° 0 mm 1 m/s 757 mmHg 96%
    05:00 +25°C° 0 mm 1 m/s 757 mmHg 97%
    06:00 +23°C° 0 mm 0 m/s 757 mmHg 99%
    07:00 +25°C° 0 mm 0 m/s 757 mmHg 88%
    08:00 +29°C° 0 mm 1 m/s 758 mmHg 78%
    09:00 +31°C° 0 mm 1 m/s 758 mmHg 67%
    10:00 +32°C° 0 mm 1 m/s 757 mmHg 61%
    11:00 +34°C° 0 mm 2 m/s 757 mmHg 54%
    12:00 +35°C° 0 mm 3 m/s 756 mmHg 47%
    13:00 +36°C° 0 mm 3 m/s 755 mmHg 46%
    14:00 +36°C° 0 mm 3 m/s 754 mmHg 45%
    15:00 +36°C° 0 mm 4 m/s 754 mmHg 44%
    16:00 +34°C° 0 mm 4 m/s 754 mmHg 49%
    17:00 +32°C° 0 mm 4 m/s 754 mmHg 53%
    18:00 +29°C° 0 mm 4 m/s 754 mmHg 58%
    19:00 +28°C° 0 mm 4 m/s 755 mmHg 63%
    20:00 +27°C° 0 mm 3 m/s 756 mmHg 68%
    21:00 +26°C° 0 mm 3 m/s 756 mmHg 73%
    22:00 +26°C° 0 mm 3 m/s 757 mmHg 77%
    23:00 +26°C° 0 mm 2 m/s 757 mmHg 81%

    21 Février, Jeudi

    Heure Température Précipitation Vent Pression Humidité
    00:00 +25°C° 0 mm 2 m/s 757 mmHg 85%
    01:00 +25°C° 0 mm 2 m/s 757 mmHg 86%
    02:00 +25°C° 0 mm 1 m/s 756 mmHg 88%
    03:00 +25°C° 0 mm 1 m/s 756 mmHg 89%
    04:00 +25°C° 0 mm 1 m/s 757 mmHg 91%
    05:00 +24°C° 0 mm 1 m/s 757 mmHg 92%
    06:00 +24°C° 0 mm 1 m/s 757 mmHg 94%
    07:00 +27°C° 0 mm 1 m/s 758 mmHg 83%
    08:00 +29°C° 0 mm 1 m/s 758 mmHg 73%
    09:00 +31°C° 0 mm 1 m/s 758 mmHg 62%
    10:00 +33°C° 0 mm 1 m/s 758 mmHg 57%
    11:00 +34°C° 0 mm 1 m/s 757 mmHg 51%
    12:00 +37°C° 0 mm 2 m/s 757 mmHg 45%
    13:00 +37°C° 0 mm 2 m/s 756 mmHg 45%
    14:00 +36°C° 0 mm 3 m/s 755 mmHg 45%
    15:00 +36°C° 0 mm 4 m/s 755 mmHg 45%
    16:00 +35°C° 0 mm 4 m/s 755 mmHg 51%
    17:00 +33°C° 0 mm 4 m/s 755 mmHg 57%
    18:00 +30°C° 0 mm 4 m/s 756 mmHg 63%
    19:00 +29°C° 0 mm 4 m/s 757 mmHg 69%
    20:00 +28°C° 0 mm 3 m/s 757 mmHg 76%
    21:00 +27°C° 0 mm 3 m/s 758 mmHg 82%
    22:00 +26°C° 0 mm 3 m/s 758 mmHg 85%
    23:00 +26°C° 0 mm 2 m/s 758 mmHg 87%
    Voir plus